SAM293 KMIA-KADW

Flight info

Callsign SAM293
Flight time 1h 51m
Altitude 41000
Route FOLZZ3 ALYRA SEELO GARIC ZORDO Q111 RUKRR THHMP VUDOO2
Aircraft B737/M-SDE2E3FGHIRWXY/LB1

Departure

Time 2026-05-04 11:40
Airport Miami International Airport (KMIA)

Arrival

Time 2026-05-04 13:32
Airport Joint Base Andrews (KADW)
Time Latitude Longitude Altitude Speed Heading
2026-05-04 11:28 25.80589 -80.29027 14 ft 0 kts 358°
2026-05-04 11:38 25.80593 -80.29031 14 ft 1 kts 312°
2026-05-04 11:38 25.80582 -80.29042 15 ft 4 kts 203°
2026-05-04 11:38 25.80512 -80.29048 14 ft 14 kts 176°
2026-05-04 11:38 25.80447 -80.28995 14 ft 14 kts 92°
2026-05-04 11:39 25.80455 -80.28861 14 ft 22 kts 88°
2026-05-04 11:39 25.80463 -80.28656 14 ft 31 kts 86°
2026-05-04 11:40 25.80295 -80.30344 644 ft 155 kts 268°
2026-05-04 11:41 25.80209 -80.31539 1693 ft 156 kts 271°
2026-05-04 11:41 25.80266 -80.32840 2489 ft 188 kts 276°
2026-05-04 11:41 25.80400 -80.34447 3006 ft 231 kts 276°
2026-05-04 11:41 25.80555 -80.36359 3705 ft 258 kts 275°
2026-05-04 11:42 25.80732 -80.38338 5063 ft 257 kts 281°
2026-05-04 11:42 25.81441 -80.40162 6350 ft 259 kts 303°
2026-05-04 11:42 25.82552 -80.41744 7575 ft 262 kts 309°
2026-05-04 11:42 25.84032 -80.42939 8764 ft 272 kts 338°
2026-05-04 11:43 25.85944 -80.43157 9977 ft 283 kts
2026-05-04 11:43 25.87938 -80.42703 10812 ft 306 kts
2026-05-04 11:43 25.90080 -80.42032 11095 ft 341 kts 12°
2026-05-04 11:43 25.92454 -80.41222 11479 ft 368 kts 12°
2026-05-04 11:44 25.94937 -80.40352 12271 ft 378 kts 12°
2026-05-04 11:44 25.97460 -80.39466 13272 ft 382 kts 11°
2026-05-04 11:44 26.00028 -80.38576 14161 ft 390 kts 11°
2026-05-04 11:44 26.02643 -80.37681 14960 ft 396 kts 11°
2026-05-04 11:45 26.05300 -80.36782 15819 ft 402 kts 11°
2026-05-04 11:45 26.07998 -80.35874 16621 ft 408 kts 10°
2026-05-04 11:45 26.10746 -80.34952 17398 ft 414 kts 10°
2026-05-04 11:45 26.13526 -80.34023 18146 ft 421 kts 11°
2026-05-04 11:46 26.16322 -80.33088 18800 ft 426 kts 10°
2026-05-04 11:46 26.19166 -80.32137 19536 ft 428 kts 10°
2026-05-04 11:46 26.22027 -80.31178 20298 ft 430 kts 10°
2026-05-04 11:46 26.24898 -80.30216 21046 ft 433 kts
2026-05-04 11:47 26.27800 -80.29246 21687 ft 437 kts
2026-05-04 11:47 26.30729 -80.28266 22361 ft 441 kts
2026-05-04 11:47 26.33677 -80.27279 23062 ft 443 kts
2026-05-04 11:47 26.36645 -80.26284 23707 ft 446 kts
2026-05-04 11:48 26.39632 -80.25282 24243 ft 450 kts
2026-05-04 11:48 26.42644 -80.24272 24772 ft 452 kts
2026-05-04 11:48 26.45669 -80.23256 25305 ft 455 kts
2026-05-04 11:48 26.48709 -80.22235 25838 ft 458 kts
2026-05-04 11:49 26.51742 -80.21216 26364 ft 461 kts
2026-05-04 11:49 26.54822 -80.20180 26915 ft 463 kts
2026-05-04 11:49 26.57913 -80.19140 27422 ft 466 kts
2026-05-04 11:49 26.61030 -80.18091 27904 ft 469 kts
2026-05-04 11:50 26.64163 -80.17036 28361 ft 471 kts
2026-05-04 11:50 26.67313 -80.15974 28761 ft 476 kts
2026-05-04 11:50 26.70506 -80.14900 29084 ft 481 kts
2026-05-04 11:50 26.73726 -80.13815 29533 ft 484 kts
2026-05-04 11:51 26.76948 -80.12724 30137 ft 482 kts
2026-05-04 11:51 26.80155 -80.11636 30702 ft 479 kts
2026-05-04 11:51 26.83338 -80.10555 31301 ft 477 kts
2026-05-04 11:51 26.86469 -80.09493 31844 ft 475 kts
2026-05-04 11:52 26.89672 -80.08408 32335 ft 475 kts
2026-05-04 11:52 26.92834 -80.07338 32793 ft 475 kts
2026-05-04 11:52 26.96000 -80.06267 33270 ft 474 kts
2026-05-04 11:52 26.99121 -80.05210 33744 ft 473 kts
2026-05-04 11:53 27.02272 -80.04141 34175 ft 473 kts
2026-05-04 11:53 27.05438 -80.03068 34499 ft 474 kts
2026-05-04 11:53 27.08595 -80.01998 34782 ft 476 kts
2026-05-04 11:53 27.11778 -80.00918 35132 ft 477 kts
2026-05-04 11:55 27.34004 -79.93348 37347 ft 480 kts
2026-05-04 11:55 27.37201 -79.92256 37613 ft 481 kts
2026-05-04 11:56 27.40409 -79.91161 37892 ft 482 kts
2026-05-04 11:56 27.43615 -79.90065 38186 ft 482 kts
2026-05-04 11:56 27.46833 -79.88964 38467 ft 483 kts
2026-05-04 11:56 27.50012 -79.87876 38714 ft 484 kts
2026-05-04 11:57 27.53237 -79.86771 38954 ft 484 kts
2026-05-04 11:57 27.56449 -79.85669 39264 ft 481 kts
2026-05-04 11:57 27.59646 -79.84569 39605 ft 479 kts
2026-05-04 11:57 27.62831 -79.83474 39900 ft 477 kts
2026-05-04 11:58 27.66002 -79.82384 40154 ft 476 kts
2026-05-04 11:58 27.69170 -79.81297 40428 ft 475 kts
2026-05-04 11:58 27.72335 -79.80210 40750 ft 474 kts
2026-05-04 11:58 27.75485 -79.79126 41038 ft 472 kts
2026-05-04 11:59 27.78641 -79.78043 41050 ft 477 kts
2026-05-04 11:59 27.85044 -79.75850 41076 ft 485 kts
2026-05-04 12:00 27.91495 -79.73629 41072 ft 489 kts
2026-05-04 12:00 27.98008 -79.71374 41074 ft 490 kts
2026-05-04 12:01 28.04543 -79.69110 41084 ft 491 kts
2026-05-04 12:02 28.27330 -79.61204 41144 ft 487 kts
2026-05-04 12:03 28.33816 -79.58950 41091 ft 487 kts
2026-05-04 12:03 28.40258 -79.56707 41089 ft 487 kts
2026-05-04 12:04 28.46731 -79.54450 41086 ft 486 kts
2026-05-04 12:04 28.53200 -79.52192 41088 ft 485 kts
2026-05-04 12:05 28.58578 -79.50313 41106 ft 485 kts
2026-05-04 12:05 28.65031 -79.48056 41103 ft 485 kts
2026-05-04 12:06 28.71483 -79.45795 41100 ft 484 kts
2026-05-04 12:06 28.77925 -79.43535 41096 ft 484 kts
2026-05-04 12:07 28.84367 -79.41273 41135 ft 484 kts
2026-05-04 12:07 28.90778 -79.39020 41108 ft 485 kts
2026-05-04 12:08 28.97250 -79.36741 41109 ft 486 kts
2026-05-04 12:08 29.03729 -79.34457 41107 ft 488 kts
2026-05-04 12:09 29.10223 -79.32164 41110 ft 489 kts
2026-05-04 12:09 29.16742 -79.29860 41119 ft 491 kts
2026-05-04 12:10 29.23225 -79.27564 41119 ft 491 kts
2026-05-04 12:10 29.29748 -79.25250 41115 ft 491 kts
2026-05-04 12:11 29.36269 -79.22934 41120 ft 490 kts
2026-05-04 12:11 29.42792 -79.20616 41129 ft 491 kts
2026-05-04 12:12 29.49313 -79.18295 41127 ft 490 kts
2026-05-04 12:12 29.55822 -79.15975 41122 ft 490 kts
2026-05-04 12:14 29.81807 -79.06683 41132 ft 489 kts
2026-05-04 12:15 29.88303 -79.04352 41127 ft 488 kts
2026-05-04 12:15 29.94811 -79.02015 41203 ft 490 kts
2026-05-04 12:16 30.01332 -78.99671 41148 ft 492 kts
2026-05-04 12:16 30.07877 -78.97311 41149 ft 492 kts
2026-05-04 12:17 30.14417 -78.94951 41140 ft 492 kts
2026-05-04 12:17 30.20910 -78.92604 41144 ft 492 kts
2026-05-04 12:18 30.27456 -78.90235 41144 ft 492 kts
2026-05-04 12:18 30.33990 -78.87868 41144 ft 492 kts
2026-05-04 12:19 30.40529 -78.85495 41147 ft 492 kts
2026-05-04 12:19 30.47067 -78.83120 41147 ft 492 kts
2026-05-04 12:20 30.53597 -78.80744 41149 ft 492 kts
2026-05-04 12:20 30.60130 -78.78363 41148 ft 491 kts
2026-05-04 12:21 30.66600 -78.76002 41160 ft 490 kts
2026-05-04 12:21 30.73112 -78.73623 41152 ft 490 kts
2026-05-04 12:22 30.79621 -78.71241 41178 ft 490 kts
2026-05-04 12:22 30.86107 -78.68864 41159 ft 488 kts
2026-05-04 12:23 30.92583 -78.66487 41151 ft 488 kts
2026-05-04 12:23 30.99070 -78.64105 41168 ft 489 kts
2026-05-04 12:24 31.05562 -78.61718 41179 ft 490 kts
2026-05-04 12:24 31.12037 -78.59332 41165 ft 490 kts
2026-05-04 12:25 31.18548 -78.56927 41159 ft 490 kts
2026-05-04 12:25 31.25061 -78.54520 41160 ft 490 kts
2026-05-04 12:26 31.31564 -78.52113 41183 ft 490 kts
2026-05-04 12:26 31.38060 -78.49704 41165 ft 488 kts
2026-05-04 12:27 31.44526 -78.47303 41156 ft 487 kts
2026-05-04 12:27 31.50980 -78.44904 41159 ft 486 kts
2026-05-04 12:28 31.57381 -78.42522 41203 ft 485 kts 10°
2026-05-04 12:28 31.63813 -78.40124 41166 ft 484 kts 10°
2026-05-04 12:29 31.70235 -78.37726 41161 ft 483 kts 10°
2026-05-04 12:29 31.76633 -78.35333 41163 ft 482 kts 10°
2026-05-04 12:30 31.83027 -78.32940 41187 ft 482 kts 10°
2026-05-04 12:30 31.89416 -78.30544 41170 ft 482 kts 10°
2026-05-04 12:31 31.95804 -78.28144 41164 ft 481 kts 10°
2026-05-04 12:31 32.02195 -78.25790 41159 ft 478 kts
2026-05-04 12:32 32.11868 -78.24179 41167 ft 469 kts 358°
2026-05-04 12:33 32.18354 -78.23324 41168 ft 469 kts 359°
2026-05-04 12:33 32.24845 -78.22417 41162 ft 469 kts 359°
2026-05-04 12:34 32.31343 -78.21473 41162 ft 469 kts 359°
2026-05-04 12:34 32.37791 -78.20527 41166 ft 470 kts 359°
2026-05-04 12:35 32.44286 -78.19572 41160 ft 470 kts 359°
2026-05-04 12:35 32.50780 -78.18618 41157 ft 470 kts 359°
2026-05-04 12:36 32.57269 -78.17664 41159 ft 470 kts 359°
2026-05-04 12:36 32.63761 -78.16708 41162 ft 470 kts 360°
2026-05-04 12:37 32.70249 -78.15752 41158 ft 470 kts 360°
2026-05-04 12:37 32.76701 -78.14799 41154 ft 469 kts 360°
2026-05-04 12:38 32.83185 -78.13840 41155 ft 469 kts 360°
2026-05-04 12:38 32.89670 -78.12880 41156 ft 469 kts 360°
2026-05-04 12:39 32.96147 -78.11919 41154 ft 469 kts 360°
2026-05-04 12:39 33.02623 -78.10957 41156 ft 469 kts 360°
2026-05-04 12:40 33.09060 -78.10000 41158 ft 469 kts 360°
2026-05-04 12:40 33.15536 -78.09036 41158 ft 470 kts 360°
2026-05-04 12:41 33.22014 -78.08069 41158 ft 469 kts 360°
2026-05-04 12:41 33.28496 -78.07100 41153 ft 468 kts 360°
2026-05-04 12:42 33.34964 -78.06132 41151 ft 468 kts 360°
2026-05-04 12:42 33.41431 -78.05163 41154 ft 468 kts
2026-05-04 12:43 33.47898 -78.04192 41151 ft 468 kts
2026-05-04 12:43 33.54359 -78.03221 41150 ft 468 kts
2026-05-04 12:44 33.60778 -78.02255 41151 ft 468 kts
2026-05-04 12:44 33.67243 -78.01280 41157 ft 468 kts
2026-05-04 12:45 33.73712 -78.00303 41156 ft 468 kts
2026-05-04 12:45 33.80173 -77.99325 41146 ft 468 kts
2026-05-04 12:46 33.86635 -77.98347 41148 ft 467 kts
2026-05-04 12:46 33.93049 -77.97358 41153 ft 468 kts
2026-05-04 12:47 33.99504 -77.96341 41150 ft 468 kts
2026-05-04 12:47 34.05965 -77.95320 41141 ft 468 kts
2026-05-04 12:48 34.12441 -77.94301 41157 ft 469 kts
2026-05-04 12:48 34.18934 -77.93279 41155 ft 471 kts
2026-05-04 12:49 34.25386 -77.92261 41159 ft 471 kts
2026-05-04 12:49 34.31896 -77.91231 41159 ft 471 kts
2026-05-04 12:50 34.38406 -77.90199 41159 ft 471 kts
2026-05-04 12:50 34.44917 -77.89167 41164 ft 471 kts
2026-05-04 12:51 34.51380 -77.88140 41151 ft 471 kts
2026-05-04 12:51 34.57877 -77.87106 41151 ft 470 kts
2026-05-04 12:52 34.64357 -77.86073 41186 ft 470 kts
2026-05-04 12:52 34.70843 -77.85038 41156 ft 470 kts
2026-05-04 12:53 34.77325 -77.84002 41151 ft 469 kts
2026-05-04 12:53 34.82712 -77.83140 41149 ft 469 kts
2026-05-04 12:54 34.89186 -77.82056 41182 ft 471 kts
2026-05-04 12:54 34.96704 -77.80368 41171 ft 473 kts
2026-05-04 12:55 35.02082 -77.79100 41164 ft 473 kts
2026-05-04 12:55 35.08547 -77.77617 41157 ft 472 kts
2026-05-04 12:56 35.15024 -77.76162 41175 ft 472 kts
2026-05-04 12:56 35.21494 -77.74712 41157 ft 473 kts
2026-05-04 12:57 35.27968 -77.73257 41148 ft 473 kts
2026-05-04 12:57 35.34442 -77.71798 41149 ft 473 kts
2026-05-04 12:58 35.40872 -77.70347 41148 ft 473 kts
2026-05-04 12:58 35.47349 -77.68882 41146 ft 473 kts
2026-05-04 12:59 35.53822 -77.67416 41146 ft 473 kts
2026-05-04 12:59 35.60300 -77.65946 41136 ft 473 kts
2026-05-04 13:00 35.66783 -77.64677 41133 ft 471 kts
2026-05-04 13:00 35.73280 -77.63586 41136 ft 471 kts
2026-05-04 13:01 35.79772 -77.62480 41138 ft 471 kts
2026-05-04 13:01 35.86227 -77.61345 41158 ft 471 kts
2026-05-04 13:02 35.92723 -77.60188 41136 ft 471 kts
2026-05-04 13:02 35.99208 -77.59028 41113 ft 471 kts
2026-05-04 13:03 36.05699 -77.57868 41124 ft 471 kts
2026-05-04 13:03 36.12202 -77.56707 41159 ft 472 kts
2026-05-04 13:04 36.18715 -77.55540 41125 ft 472 kts
2026-05-04 13:04 36.25222 -77.54371 41110 ft 472 kts
2026-05-04 13:05 36.31685 -77.53209 41117 ft 472 kts
2026-05-04 13:05 36.38188 -77.52038 41119 ft 472 kts
2026-05-04 13:06 36.44686 -77.50865 41115 ft 471 kts
2026-05-04 13:06 36.51179 -77.49692 41118 ft 471 kts
2026-05-04 13:07 36.57669 -77.48519 41140 ft 470 kts
2026-05-04 13:07 36.64098 -77.47365 41114 ft 470 kts
2026-05-04 13:08 36.70565 -77.46204 41109 ft 469 kts
2026-05-04 13:08 36.77022 -77.45042 41111 ft 469 kts
2026-05-04 13:09 36.83478 -77.43877 41124 ft 469 kts
2026-05-04 13:09 36.89950 -77.42707 41116 ft 469 kts
2026-05-04 13:10 36.96338 -77.41545 40514 ft 460 kts
2026-05-04 13:10 36.99501 -77.40970 39957 ft 458 kts
2026-05-04 13:10 37.02645 -77.40400 39364 ft 457 kts
2026-05-04 13:10 37.05793 -77.39830 38720 ft 457 kts
2026-05-04 13:11 37.08949 -77.39259 37903 ft 457 kts
2026-05-04 13:11 37.12093 -77.38687 37185 ft 455 kts
2026-05-04 13:11 37.15195 -77.38122 36494 ft 453 kts
2026-05-04 13:11 37.18303 -77.37554 35749 ft 451 kts
2026-05-04 13:12 37.21415 -77.36987 34942 ft 451 kts
2026-05-04 13:12 37.24525 -77.36420 34118 ft 450 kts
2026-05-04 13:12 37.27623 -77.35855 33154 ft 450 kts
2026-05-04 13:12 37.30719 -77.35289 32174 ft 450 kts
2026-05-04 13:13 37.33815 -77.34723 31182 ft 449 kts
2026-05-04 13:13 37.36907 -77.34156 30170 ft 449 kts
2026-05-04 13:13 37.39964 -77.33596 28965 ft 450 kts
2026-05-04 13:13 37.43031 -77.33031 28183 ft 440 kts
2026-05-04 13:14 37.46035 -77.32476 27394 ft 433 kts
2026-05-04 13:14 37.48995 -77.31929 26589 ft 427 kts
2026-05-04 13:14 37.51905 -77.31282 25845 ft 423 kts
2026-05-04 13:14 37.54771 -77.30531 25068 ft 418 kts
2026-05-04 13:15 37.57606 -77.29754 24304 ft 414 kts
2026-05-04 13:15 37.60411 -77.28988 23515 ft 409 kts
2026-05-04 13:15 37.63188 -77.28243 22639 ft 405 kts
2026-05-04 13:15 37.65927 -77.27518 21875 ft 399 kts
2026-05-04 13:16 37.68622 -77.26810 21115 ft 393 kts
2026-05-04 13:16 37.71289 -77.26111 20359 ft 389 kts
2026-05-04 13:16 37.73926 -77.25419 19625 ft 385 kts
2026-05-04 13:16 37.76517 -77.24586 18897 ft 386 kts 12°
2026-05-04 13:17 37.79039 -77.23413 18148 ft 385 kts 15°
2026-05-04 13:17 37.81520 -77.22166 17339 ft 382 kts 15°
2026-05-04 13:17 37.83951 -77.20950 16590 ft 379 kts 15°
2026-05-04 13:17 37.86393 -77.19761 15851 ft 375 kts 14°
2026-05-04 13:18 37.88825 -77.18594 15141 ft 371 kts 14°
2026-05-04 13:18 37.91220 -77.17413 14446 ft 369 kts 18°
2026-05-04 13:18 37.93525 -77.15958 13677 ft 371 kts 22°
2026-05-04 13:18 37.95785 -77.14392 12924 ft 368 kts 24°
2026-05-04 13:19 37.97871 -77.12488 12161 ft 373 kts 39°
2026-05-04 13:19 37.99513 -77.09966 11887 ft 367 kts 53°
2026-05-04 13:19 38.00668 -77.07074 11719 ft 372 kts 64°
2026-05-04 13:19 38.01959 -77.04215 11189 ft 376 kts 43°
2026-05-04 13:20 38.04038 -77.02362 10807 ft 358 kts 17°
2026-05-04 13:20 38.06359 -77.01554 10504 ft 337 kts
2026-05-04 13:20 38.08614 -77.00958 10200 ft 325 kts
2026-05-04 13:20 38.10764 -77.00394 9974 ft 312 kts
2026-05-04 13:21 38.12819 -76.99845 9930 ft 293 kts
2026-05-04 13:21 38.14822 -76.99309 9427 ft 292 kts
2026-05-04 13:21 38.16792 -76.98776 9119 ft 286 kts
2026-05-04 13:21 38.18737 -76.98246 8848 ft 284 kts
2026-05-04 13:22 38.20673 -76.97716 8595 ft 285 kts
2026-05-04 13:22 38.22619 -76.97181 8331 ft 287 kts
2026-05-04 13:22 38.24575 -76.96641 8077 ft 288 kts
2026-05-04 13:22 38.26519 -76.96102 7747 ft 289 kts
2026-05-04 13:23 38.28477 -76.95557 7382 ft 286 kts
2026-05-04 13:23 38.30397 -76.95021 7079 ft 281 kts
2026-05-04 13:23 38.32285 -76.94494 6795 ft 282 kts
2026-05-04 13:23 38.34207 -76.93958 6509 ft 283 kts
2026-05-04 13:24 38.36132 -76.93421 6198 ft 283 kts
2026-05-04 13:24 38.38060 -76.92882 5905 ft 283 kts
2026-05-04 13:24 38.39979 -76.92345 5596 ft 281 kts
2026-05-04 13:25 38.43735 -76.91292 4971 ft 273 kts
2026-05-04 13:25 38.45589 -76.90773 4676 ft 273 kts
2026-05-04 13:25 38.47446 -76.90253 4367 ft 273 kts
2026-05-04 13:25 38.49302 -76.89732 4050 ft 272 kts
2026-05-04 13:26 38.51150 -76.89213 3758 ft 271 kts
2026-05-04 13:26 38.52965 -76.88703 3521 ft 262 kts
2026-05-04 13:26 38.54714 -76.88211 3389 ft 251 kts
2026-05-04 13:26 38.56390 -76.87739 3250 ft 242 kts
2026-05-04 13:27 38.58005 -76.87284 3107 ft 233 kts
2026-05-04 13:27 38.59572 -76.86921 2960 ft 224 kts 359°
2026-05-04 13:27 38.61088 -76.86934 2881 ft 213 kts 355°
2026-05-04 13:27 38.62535 -76.86968 2800 ft 204 kts 355°
2026-05-04 13:28 38.63937 -76.86990 2724 ft 200 kts 355°
2026-05-04 13:28 38.65332 -76.87004 2664 ft 200 kts 356°
2026-05-04 13:28 38.66702 -76.87012 2625 ft 193 kts 354°
2026-05-04 13:28 38.68031 -76.87018 2540 ft 192 kts 355°
2026-05-04 13:29 38.69378 -76.87046 2325 ft 199 kts 356°
2026-05-04 13:29 38.70745 -76.87028 2011 ft 192 kts 357°
2026-05-04 13:29 38.72037 -76.86964 1736 ft 177 kts 355°
2026-05-04 13:29 38.73205 -76.86976 1542 ft 159 kts 354°
2026-05-04 13:30 38.74243 -76.86992 1398 ft 145 kts 354°
2026-05-04 13:30 38.75238 -76.87014 1216 ft 144 kts 355°
2026-05-04 13:30 38.76242 -76.87031 1013 ft 143 kts 356°
2026-05-04 13:30 38.77239 -76.87042 810 ft 142 kts 357°
2026-05-04 13:31 38.78203 -76.87058 607 ft 137 kts 356°
2026-05-04 13:31 38.79133 -76.87061 422 ft 135 kts 357°
2026-05-04 13:31 38.80091 -76.87059 273 ft 136 kts 357°
2026-05-04 13:31 38.80866 -76.87057 276 ft 61 kts
2026-05-04 13:32 38.80948 -76.87146 278 ft 14 kts 261°
2026-05-04 13:32 38.80944 -76.87276 274 ft 15 kts 268°
2026-05-04 13:32 38.80943 -76.87406 274 ft 14 kts 270°
2026-05-04 13:32 38.80887 -76.87449 274 ft 11 kts 178°
2026-05-04 13:33 38.80814 -76.87446 274 ft 10 kts 179°
2026-05-04 13:33 38.80743 -76.87445 274 ft 10 kts 181°
2026-05-04 13:33 38.80673 -76.87446 274 ft 10 kts 179°
2026-05-04 13:33 38.80617 -76.87485 277 ft 11 kts 259°
2026-05-04 13:34 38.80617 -76.87582 271 ft 11 kts 271°
2026-05-04 13:34 38.80618 -76.87676 271 ft 10 kts 270°
2026-05-04 13:34 38.80655 -76.87721 271 ft 8 kts
2026-05-04 13:34 38.80691 -76.87721 271 ft 0 kts